Location: Molveno
(46.1500°N, 10.9667°E)
Time: 01:22:40
(UTC+00:00)

Cosmos 1408 - Pass Details

Date: 05 July 2020
Orbit: 471 x 493 km, 82.6° (Epoch: 11 August)

Event Time Altitude Azimuth Distance (km) Brightness Sun altitude
Exits shadow 21:29:00 27° 104° (ESE) 943 3.6 -16.7°
Maximum altitude 21:29:24 28° 91° (E) 926 3.7 -16.7°
Drops below altitude 10° 21:32:30 10° 31° (NNE) 1,644 5.7 -16.9°
Sets 21:34:47 0° 20° (NNE) 2,527 6.9 -17.1°
